Find Starlink 31128

NORAD ID: 58669 Int'l Des: 2023-211 Owner: SPXS Country: US Constellation: starlink operational
LEOCIRCULAR

現在のビュー

3D地球を読み込み中...

About Starlink 31128

Starlink 31128 (NORAD 58669) is a starlink constellation satellite (v2 mini) launched Dec 29, 2023 by SPXS of US. It operates in LEO, CIRCULAR orbit with a mass of 730.00 kg.

Starlink 31128について

説明を読み込み中...

次回通過

Passes for default location (London). Set your location on the main map for personalized predictions.

高度履歴

Loading altitude history...

軌道要素

1 58669U 23211C 26177.74174487 -.00001048 00000-0 -28585-4 0 9995
2 58669 43.0035 189.3277 0001038 273.0450 87.0283 15.27569325139142
Epoch: Jun 26, 2026 • Age: 11 hours

現在のステータス

高度 486.9 km
速度 7.63 km/s
衛星直下点 42.87°N, 68.55°W
打ち上げ日 Dec 29, 2023
運用期間 2.4 years
タイプ internet

技術仕様

分類 Payload
質量 730.00 kg
乾燥質量 700.00 kg
総質量 730.00 kg
長さ 0.30 m
直径 4.10 m
スパン 29.00 m
形状 Box + pan
製造者 SPXS
バスタイプ Starlink V2M
フェーズステータス In Orbit
所有者/国 SPXS/US

Most Searched